sat.trackr.live / text

‹ back to catalog

STARLINK-11289 [DTC]

NORAD 60991 · 2024-158B

PAYLOAD ACTIVE UNKNOWN

§ Identity

Operator
Country
US
Launch date
2024-09-05
Launch site
AFETR
Launch vehicle
Mass (kg)
RCS (m²)

Purposes: comms

External: N2YO · Heavens-Above · Gunter

§ Orbital elements

Epoch: 2026-05-24T17:59:57.561792Z

Period
91.74 min
Inclination
53.1580°
Eccentricity
0.0000648
Mean motion
15.69700603 rev/d
Perigee alt
359.3 km
Apogee alt
360.2 km
Semi-major
6,737.9 km
B*
-1.5938e-6
RAAN
266.1009°
Arg perigee
75.9646°
Mean anomaly
284.1444°
Rev number
9,954

§ Raw data

STARLINK-11289 [DTC]1 60991U 24158B   26144.74997178 -.00000781  00000+0 -15938-5 0  99922 60991  53.1580 266.1009 0000648  75.9646 284.1444 15.69700603 99549

JSON: /api/v1/satellites/60991 · /tle

For live sub-satellite position, see the globe view (requires WebGL).

§ Visibility from observer

Set your observer location to see the next 7 days of passes ≥ 10°. The values pass through the URL so the page stays shareable.

No JS? Fill the form by hand. The geolocation button needs JavaScript.